Location: Newark
(35.6799°N, 139.7636°E)
Time: 14:44:55
(UTC+00:00)

Explorer 11/Cluster Stage 4 - Pass Details

Date: 15 December 2019
Orbit: 467 x 1259 km, 28.8° (Epoch: 21 January)

Event Time Altitude Azimuth Distance (km) Brightness Sun altitude
Rises 19:42:10 0° 196° (SSW) 4,128 10.2 -23.9°
Reaches altitude 10° 19:47:22 10° 169° (S) 3,221 10.0 -22.8°
Maximum altitude 19:50:15 12° 148° (SSE) 3,059 10.1 -22.3°
Drops below altitude 10° 19:53:07 10° 127° (SE) 3,211 10.6 -21.7°
Sets 19:58:15 0° 100° (E) 4,102 11.8 -20.7°
